This is the latest recevied weather packets stored in our database for station/object AA7VG. If no packets are shown the sender has not sent any weather packets the latest 10 day(s).
| Time | Temp. | Humidity | Pressure | Rain* | Wind** | Luminosity | Snow |
|---|---|---|---|---|---|---|---|
| 1777716110 | 4.44° C | 54% | 1018.3 hPa | 0 mm | - | - | - |
| 1777715809 | 5° C | 50% | 1017.9 hPa | 0 mm | - | - | - |
| 1777715505 | 5.56° C | 49% | 1018.2 hPa | 0 mm | - | - | - |
| 1777715202 | 5.56° C | 48% | 1018.2 hPa | 0 mm | - | - | - |
| 1777714901 | 5.56° C | 48% | 1017.9 hPa | 0 mm | - | - | - |
| 1777714599 | 5.56° C | 48% | 1017.8 hPa | 0 mm | - | - | - |
| 1777714296 | 5° C | 50% | 1017.7 hPa | 0 mm | - | - | - |
| 1777713994 | 5° C | 50% | 1017.8 hPa | 0 mm | - | - | - |
| 1777713691 | 4.44° C | 51% | 1017.8 hPa | 0 mm | - | - | - |
| 1777713387 | 4.44° C | 52% | 1017.8 hPa | 0 mm | - | - | - |
| 1777713084 | 4.44° C | 53% | 1018 hPa | 0 mm | - | - | - |
| 1777712781 | 4.44° C | 52% | 1017.8 hPa | 0 mm | - | - | - |
| 1777712479 | 4.44° C | 52% | 1018 hPa | 0 mm | - | - | - |
| 1777712175 | 5° C | 50% | 1017.8 hPa | 0 mm | - | - | - |
| 1777711872 | 4.44° C | 49% | 1017.9 hPa | 0 mm | - | - | - |
| 1777711569 | 5° C | 49% | 1017.9 hPa | 0 mm | - | - | - |
| 1777711263 | 4.44° C | 49% | 1018 hPa | 0 mm | - | - | - |
| 1777710961 | 4.44° C | 51% | 1018 hPa | 0 mm | - | - | - |
| 1777710657 | 3.89° C | 54% | 1017.9 hPa | 0 mm | - | - | - |
| 1777710355 | 4.44° C | 54% | 1018.2 hPa | 0 mm | - | - | - |
| 1777710051 | 3.89° C | 55% | 1018 hPa | 0 mm | - | - | - |
| 1777709749 | 3.89° C | 55% | 1018 hPa | 0 mm | - | - | - |
| 1777709446 | 4.44° C | 54% | 1018 hPa | 0 mm | - | - | - |
| 1777709143 | 4.44° C | 53% | 1018 hPa | 0 mm | - | - | - |
| 1777708841 | 5° C | 52% | 1018.2 hPa | 0 mm | - | - | - |
* Rain latest hour (hover to see other rain measurements)
** Current wind speed in m/s (hover to see current wind gust speed)